Location: Gand�
(15.0971°N, 12.6564°W)
Time: 14:50:17
(UTC+00:00)

Meteor 2-21 Rocket - Pass Details

Date: 07 August 2020
Orbit: 936 x 967 km, 82.6° (Epoch: 19 September)

Event Time Altitude Azimuth Distance (km) Brightness Sun altitude
Rises 04:32:45 0° 357° (N) 3,589 7.8 -28.1°
Reaches altitude 10° 04:35:13 10° 358° (N) 2,647 7.1 -27.5°
Maximum altitude 04:41:17 82° 86° (E) 954 4.4 -26.2°
Enters shadow 04:45:58 18° 173° (S) 2,145 6.1 -25.2°
